Location: Meadowbank Aerodrome
(65.0250°N, 96.0705°W)
Time: 05:39:16
(UTC-05:00)

Cosmos 2221 - Visible Passes

Search period start: 30 March 2015 00:00
Search period end: 09 April 2015 00:00
Orbit: 596 x 620 km, 82.5° (Epoch: 29 March)

Date Brightness Start Highest point End Pass type
(mag) Time Alt. Az. Time Alt. Az. Time Alt. Az.
30 Mar 6.2 03:20:05 10° N 03:21:11 11° NNE 03:22:21 10° NE visible
30 Mar 5.2 04:56:53 10° N 05:00:28 24° NE 05:04:03 10° ESE visible
30 Mar 5.2 22:33:01 10° WSW 22:36:35 23° NW 22:40:06 10° N visible
31 Mar 6.2 00:14:56 10° NW 00:15:54 11° NNW 00:16:48 10° N visible
31 Mar 6.1 03:33:38 10° N 03:35:31 13° NNE 03:37:28 10° NE visible
31 Mar 4.7 05:10:44 10° N 05:14:37 31° NE 05:18:29 10° ESE visible
31 Mar 3.3 21:07:53 10° SSW 21:12:13 58° WNW 21:16:31 10° NNE visible
31 Mar 5.6 22:47:37 10° W 22:50:48 19° NW 22:53:56 10° N visible
01 Apr 5.9 03:47:21 10° N 03:49:50 15° NE 03:52:22 10° ENE visible
01 Apr 4.2 05:24:36 10° N 05:28:43 40° ENE 05:32:48 10° SE visible
01 Apr 4.0 21:22:03 10° SW 21:26:15 43° WNW 21:30:25 10° NNE visible
01 Apr 5.9 23:02:20 10° WNW 23:05:03 16° NW 23:07:43 10° N visible
02 Apr 5.7 04:01:08 10° N 04:04:06 18° NE 04:07:06 10° E visible
02 Apr 3.5 05:38:30 10° NNW 05:42:45 53° ENE 05:46:58 10° SE visible
02 Apr 4.6 21:36:21 10° WSW 21:40:19 33° NW 21:44:17 10° N visible
02 Apr 6.1 23:17:11 10° WNW 23:19:20 13° NNW 23:21:26 10° N visible
03 Apr 6.4 02:38:44 10° NNE 02:38:57 10° NNE 02:39:13 10° NNE visible
03 Apr 5.4 04:14:56 10° N 04:18:19 22° NE 04:21:43 10° E visible
03 Apr 5.1 21:50:44 10° WSW 21:54:27 26° NW 21:58:08 10° N visible
03 Apr 6.2 23:32:14 10° NW 23:33:40 11° NNW 23:35:02 10° N visible
04 Apr 6.1 02:51:49 10° N 02:53:18 12° NNE 02:54:50 10° NE visible
04 Apr 4.9 04:28:46 10° N 04:32:29 27° NE 04:36:12 10° ESE visible
04 Apr 5.5 22:05:15 10° W 22:08:38 21° NW 22:11:57 10° N visible
05 Apr 5.9 03:05:27 10° N 03:07:36 14° NNE 03:09:50 10° ENE visible
05 Apr 4.4 04:42:37 10° N 04:46:36 35° ENE 04:50:34 10° SE visible
05 Apr 5.8 22:19:53 10° W 22:22:50 17° NW 22:25:44 10° N visible
06 Apr 5.7 03:19:11 10° N 03:21:52 16° NE 03:24:37 10° ENE visible
06 Apr 3.8 04:56:29 10° NNW 05:00:39 45° ENE 05:04:48 10° SE visible
06 Apr 5.9 22:34:39 10° WNW 22:37:06 14° NW 22:39:28 10° N visible
07 Apr 5.5 03:32:57 10° N 03:36:06 20° NE 03:39:18 10° E visible
07 Apr 3.2 05:10:22 10° NNW 05:14:39 62° ENE 05:18:54 10° SSE visible
07 Apr 6.0 22:49:34 10° NW 22:51:23 12° NNW 22:53:08 10° N visible
08 Apr 6.1 02:10:03 10° N 02:11:00 11° NNE 02:12:02 10° NE visible
08 Apr 5.1 03:46:45 10° N 03:50:17 24° NE 03:53:49 10° ESE visible
08 Apr 6.2 23:04:48 10° NW 23:05:43 10° NNW 23:06:33 10° NNW visible
